Weather History for Portland, ME

Change the Weather History Date:

Thursday, February 6, 2014

  Actual Average Record
Temperature  
Mean Temperature 16 °F 24 °F  
Max Temperature 25 °F 33 °F 48 °F (2012)
Min Temperature 6 °F 14 °F -13 °F (1988)
Degree Days  
Heating Degree Days 49 41  
Month to date heating degree days 233 251  
Since 1 July heating degree days 4277 4187  
Cooling Degree Days 0 0  
Month to date cooling degree days 0 0  
Year to date cooling degree days 0 0  
Moisture  
Dew Point 8 °F    
Average Humidity 72    
Maximum Humidity 92    
Minimum Humidity 52    
Precipitation  
Precipitation 0.00 in 0.11 in 1.98 in (1896)
Month to date precipitation 0.72 0.65  
Year to date precipitation 4.77 4.03  
Snow  
Snow 0.00 in 0.40 in 7.20 in (1942)
Month to date snowfall 9.0 2.8  
Since 1 July snowfall 53.3 37.1  
Snow Depth 8.00 in    
Sea Level Pressure  
Sea Level Pressure 30.16 in    
Wind  
Wind Speed 4 mph (SW)    
Max Wind Speed 12 mph    
Max Gust Speed 15 mph    
Visibility 10 miles    
Events      
T = Trace of Precipitation, MM = Missing Value Source: NWS Daily Summary

Daily Weather History Graph

Daily Weather History Graph

Search for Another Location

Airport:

Trip Planner

Search our weather history database for the weather conditions in past years. The results will help you decide how hot, cold, wet, or windy it might be!

Date:

Astronomy

Feb. 06, 2014 Rise Set
Actual Time 6:51 AM EST 4:59 PM EST
Civil Twilight 6:21 AM EST 5:29 PM EST
Nautical Twilight 5:47 AM EST 6:03 PM EST
Astronomical Twilight 5:14 AM EST 6:36 PM EST
Moon 10:28 AM EST (2/6) 12:04 AM EST (2/6)
Length of Visible Light 11h 07m
Length of Day
10h 07m
Waxing Crescent, 49% of the Moon is Illuminated
Feb 6
Waxing Crescent
Feb 6
First Quarter
Feb 14
Full
Feb 22
Last Quarter
Mar 1
New

Hourly Weather History & Observations

Time (EST) Temp. Windchill Dew Point Humidity Pressure Visibility Wind Dir Wind Speed Gust Speed Precip Events Conditions
12:51 AM 17.1 °F 7.6 °F 12.9 °F 84% 29.97 in 10.0 mi NNW 6.9 mph - N/A   Clear
1:51 AM 15.1 °F 5.2 °F 10.9 °F 84% 30.00 in 10.0 mi NNW 6.9 mph - N/A   Clear
2:51 AM 12.0 °F 1.5 °F 10.0 °F 92% 30.04 in 10.0 mi WNW 6.9 mph - N/A   Clear
3:51 AM 9.0 °F -2.2 °F 7.0 °F 92% 30.07 in 10.0 mi NW 6.9 mph - N/A   Clear
4:51 AM 10.9 °F 1.4 °F 8.1 °F 88% 30.10 in 10.0 mi West 5.8 mph - N/A   Clear
5:51 AM 9.0 °F - 7.0 °F 92% 30.13 in 10.0 mi Calm Calm - N/A   Clear
6:51 AM 8.1 °F - 5.0 °F 87% 30.17 in 10.0 mi Calm Calm - N/A   Clear
7:51 AM 10.0 °F - 7.0 °F 87% 30.20 in 10.0 mi Calm Calm - N/A   Partly Cloudy
8:51 AM 12.0 °F - 7.0 °F 80% 30.23 in 10.0 mi Calm Calm - N/A   Scattered Clouds
9:51 AM 16.0 °F 10.4 °F 8.1 °F 71% 30.25 in 10.0 mi WSW 3.5 mph - N/A   Mostly Cloudy
10:51 AM 19.9 °F - 7.0 °F 57% 30.25 in 10.0 mi Calm Calm - N/A   Scattered Clouds
11:51 AM 21.0 °F - 7.0 °F 55% 30.23 in 10.0 mi Calm Calm - N/A   Mostly Cloudy
12:51 PM 23.0 °F - 8.1 °F 53% 30.22 in 10.0 mi Calm Calm - 0.00 in   Mostly Cloudy
1:51 PM 23.0 °F 14.7 °F 10.0 °F 58% 30.20 in 10.0 mi South 6.9 mph - N/A   Mostly Cloudy
2:51 PM 21.9 °F 11.7 °F 10.9 °F 63% 30.19 in 10.0 mi SSE 9.2 mph - N/A   Mostly Cloudy
3:51 PM 23.0 °F 13.9 °F 14.0 °F 68% 30.21 in 10.0 mi South 8.1 mph - N/A   Scattered Clouds
4:51 PM 23.0 °F 17.0 °F 12.9 °F 65% 30.20 in 10.0 mi South 4.6 mph - N/A   Scattered Clouds
5:51 PM 19.0 °F 12.3 °F 10.0 °F 68% 30.20 in 10.0 mi South 4.6 mph - N/A   Clear
6:51 PM 17.1 °F - 9.0 °F 71% 30.21 in 10.0 mi Calm Calm - N/A   Clear
7:51 PM 16.0 °F - 7.0 °F 68% 30.20 in 10.0 mi Calm Calm - N/A   Clear
8:51 PM 16.0 °F 8.8 °F 5.0 °F 62% 30.18 in 10.0 mi SW 4.6 mph - N/A   Clear
9:51 PM 14.0 °F 5.1 °F 5.0 °F 67% 30.18 in 10.0 mi SW 5.8 mph - N/A   Partly Cloudy
10:51 PM 12.9 °F 3.8 °F 5.0 °F 71% 30.18 in 10.0 mi SW 5.8 mph - N/A   Partly Cloudy
11:51 PM 12.9 °F 3.8 °F 3.9 °F 67% 30.16 in 10.0 mi WSW 5.8 mph - N/A   Partly Cloudy